<?xml version="1.0" encoding="UTF-8" standalone="no" ?>
<gpx xmlns="http://www.topografix.com/GPX/1/1" xmlns:xsi="http://www.w3.org/2001/XMLSchema-instance" xsi:schemaLocation="http://www.topografix.com/GPX/1/1 http://www.topografix.com/GPX/1/1/gpx.xsd" version="1.1" creator="VisuGPX - https://www.visugpx.com">
  <metadata>
    <name>2019-01-28-46-Lascabanes</name>
    <desc><![CDATA[Randonnée de 10,5km pour environ 200m de dénivelé positif
circuit en deux boucles. des points de vues de beaux chemins passage par la chapelle st jean le Froid]]></desc>
  </metadata>
  <trk>
    <name><![CDATA[track]]></name>
    <trkseg>
      <trkpt lat="44.33977" lon="1.30759">
        <ele>184</ele>
        <time>2008-01-22T00:00:00Z</time>
      </trkpt>
      <trkpt lat="44.33973" lon="1.30748">
        <ele>184</ele>
        <time>2008-01-22T00:00:00Z</time>
      </trkpt>
      <trkpt lat="44.3399" lon="1.30687">
        <ele>186</ele>
        <time>2008-01-22T00:00:00Z</time>
      </trkpt>
      <trkpt lat="44.33984" lon="1.30608">
        <ele>188</ele>
        <time>2008-01-22T00:00:00Z</time>
      </trkpt>
      <trkpt lat="44.33989" lon="1.3057">
        <ele>189</ele>
        <time>2008-01-22T00:00:00Z</time>
      </trkpt>
      <trkpt lat="44.34017" lon="1.3056">
        <ele>188</ele>
        <time>2008-01-22T00:00:00Z</time>
      </trkpt>
      <trkpt lat="44.34037" lon="1.3056">
        <ele>188</ele>
        <time>2008-01-22T00:00:00Z</time>
      </trkpt>
      <trkpt lat="44.34047" lon="1.30556">
        <ele>188</ele>
        <time>2008-01-22T00:00:00Z</time>
      </trkpt>
      <trkpt lat="44.34079" lon="1.30508">
        <ele>188</ele>
        <time>2008-01-22T00:00:00Z</time>
      </trkpt>
      <trkpt lat="44.34106" lon="1.30504">
        <ele>188</ele>
        <time>2008-01-22T00:00:00Z</time>
      </trkpt>
      <trkpt lat="44.34114" lon="1.30496">
        <ele>188</ele>
        <time>2008-01-22T00:00:00Z</time>
      </trkpt>
      <trkpt lat="44.34159" lon="1.30317">
        <ele>189</ele>
        <time>2008-01-22T00:00:00Z</time>
      </trkpt>
      <trkpt lat="44.3417" lon="1.30259">
        <ele>190</ele>
        <time>2008-01-22T00:00:00Z</time>
      </trkpt>
      <trkpt lat="44.34172" lon="1.30164">
        <ele>198</ele>
        <time>2008-01-22T00:00:00Z</time>
      </trkpt>
      <trkpt lat="44.34182" lon="1.30146">
        <ele>199</ele>
        <time>2008-01-22T00:00:00Z</time>
      </trkpt>
      <trkpt lat="44.34214" lon="1.30144">
        <ele>200</ele>
        <time>2008-01-22T00:00:00Z</time>
      </trkpt>
      <trkpt lat="44.34252" lon="1.30122">
        <ele>205</ele>
        <time>2008-01-22T00:00:00Z</time>
      </trkpt>
      <trkpt lat="44.34288" lon="1.30083">
        <ele>210</ele>
        <time>2008-01-22T00:00:00Z</time>
      </trkpt>
      <trkpt lat="44.34346" lon="1.30048">
        <ele>220</ele>
        <time>2008-01-22T00:00:00Z</time>
      </trkpt>
      <trkpt lat="44.34359" lon="1.30028">
        <ele>230</ele>
        <time>2008-01-22T00:00:00Z</time>
      </trkpt>
      <trkpt lat="44.34384" lon="1.29998">
        <ele>231</ele>
        <time>2008-01-22T00:00:00Z</time>
      </trkpt>
      <trkpt lat="44.34429" lon="1.29956">
        <ele>235</ele>
        <time>2008-01-22T00:00:00Z</time>
      </trkpt>
      <trkpt lat="44.34443" lon="1.29937">
        <ele>238</ele>
        <time>2008-01-22T00:00:00Z</time>
      </trkpt>
      <trkpt lat="44.34447" lon="1.29923">
        <ele>239</ele>
        <time>2008-01-22T00:00:00Z</time>
      </trkpt>
      <trkpt lat="44.34442" lon="1.29882">
        <ele>242</ele>
        <time>2008-01-22T00:00:00Z</time>
      </trkpt>
      <trkpt lat="44.34442" lon="1.29859">
        <ele>244</ele>
        <time>2008-01-22T00:00:00Z</time>
      </trkpt>
      <trkpt lat="44.34448" lon="1.29823">
        <ele>247</ele>
        <time>2008-01-22T00:00:00Z</time>
      </trkpt>
      <trkpt lat="44.34447" lon="1.29812">
        <ele>248</ele>
        <time>2008-01-22T00:00:00Z</time>
      </trkpt>
      <trkpt lat="44.34439" lon="1.29787">
        <ele>250</ele>
        <time>2008-01-22T00:00:00Z</time>
      </trkpt>
      <trkpt lat="44.3445" lon="1.29568">
        <ele>250</ele>
        <time>2008-01-22T00:00:00Z</time>
      </trkpt>
      <trkpt lat="44.34455" lon="1.29514">
        <ele>252</ele>
        <time>2008-01-22T00:00:00Z</time>
      </trkpt>
      <trkpt lat="44.34447" lon="1.29484">
        <ele>255</ele>
        <time>2008-01-22T00:00:00Z</time>
      </trkpt>
      <trkpt lat="44.34431" lon="1.29452">
        <ele>260</ele>
        <time>2008-01-22T00:00:00Z</time>
      </trkpt>
      <trkpt lat="44.34368" lon="1.29383">
        <ele>265</ele>
        <time>2008-01-22T00:00:00Z</time>
      </trkpt>
      <trkpt lat="44.34391" lon="1.29344">
        <ele>265</ele>
        <time>2008-01-22T00:00:00Z</time>
      </trkpt>
      <trkpt lat="44.34432" lon="1.29267">
        <ele>261</ele>
        <time>2008-01-22T00:00:00Z</time>
      </trkpt>
      <trkpt lat="44.34487" lon="1.29205">
        <ele>259</ele>
        <time>2008-01-22T00:00:00Z</time>
      </trkpt>
      <trkpt lat="44.34528" lon="1.29176">
        <ele>258</ele>
        <time>2008-01-22T00:00:00Z</time>
      </trkpt>
      <trkpt lat="44.3454" lon="1.29157">
        <ele>257</ele>
        <time>2008-01-22T00:00:00Z</time>
      </trkpt>
      <trkpt lat="44.34558" lon="1.29106">
        <ele>257</ele>
        <time>2008-01-22T00:00:00Z</time>
      </trkpt>
      <trkpt lat="44.34575" lon="1.29084">
        <ele>257</ele>
        <time>2008-01-22T00:00:00Z</time>
      </trkpt>
      <trkpt lat="44.34617" lon="1.29062">
        <ele>257</ele>
        <time>2008-01-22T00:00:00Z</time>
      </trkpt>
      <trkpt lat="44.34636" lon="1.29042">
        <ele>257</ele>
        <time>2008-01-22T00:00:00Z</time>
      </trkpt>
      <trkpt lat="44.34689" lon="1.28961">
        <ele>258</ele>
        <time>2008-01-22T00:00:00Z</time>
      </trkpt>
      <trkpt lat="44.34771" lon="1.28762">
        <ele>258</ele>
        <time>2008-01-22T00:00:00Z</time>
      </trkpt>
      <trkpt lat="44.3479" lon="1.28695">
        <ele>258</ele>
        <time>2008-01-22T00:00:00Z</time>
      </trkpt>
      <trkpt lat="44.34792" lon="1.28665">
        <ele>258</ele>
        <time>2008-01-22T00:00:00Z</time>
      </trkpt>
      <trkpt lat="44.34759" lon="1.28639">
        <ele>258</ele>
        <time>2008-01-22T00:00:00Z</time>
      </trkpt>
      <trkpt lat="44.34729" lon="1.28559">
        <ele>259</ele>
        <time>2008-01-22T00:00:00Z</time>
      </trkpt>
      <trkpt lat="44.347" lon="1.2851">
        <ele>261</ele>
        <time>2008-01-22T00:00:00Z</time>
      </trkpt>
      <trkpt lat="44.34602" lon="1.28384">
        <ele>270</ele>
        <time>2008-01-22T00:00:00Z</time>
      </trkpt>
      <trkpt lat="44.34581" lon="1.28301">
        <ele>272</ele>
        <time>2008-01-22T00:00:00Z</time>
      </trkpt>
      <trkpt lat="44.34536" lon="1.28202">
        <ele>272</ele>
        <time>2008-01-22T00:00:00Z</time>
      </trkpt>
      <trkpt lat="44.34517" lon="1.28186">
        <ele>271</ele>
        <time>2008-01-22T00:00:00Z</time>
      </trkpt>
      <trkpt lat="44.34481" lon="1.28184">
        <ele>270</ele>
        <time>2008-01-22T00:00:00Z</time>
      </trkpt>
      <trkpt lat="44.34306" lon="1.28115">
        <ele>260</ele>
        <time>2008-01-22T00:00:00Z</time>
      </trkpt>
      <trkpt lat="44.34211" lon="1.28097">
        <ele>265</ele>
        <time>2008-01-22T00:00:00Z</time>
      </trkpt>
      <trkpt lat="44.34149" lon="1.28091">
        <ele>266</ele>
        <time>2008-01-22T00:00:00Z</time>
      </trkpt>
      <trkpt lat="44.34064" lon="1.28058">
        <ele>265</ele>
        <time>2008-01-22T00:00:00Z</time>
      </trkpt>
      <trkpt lat="44.34042" lon="1.28057">
        <ele>270</ele>
        <time>2008-01-22T00:00:00Z</time>
      </trkpt>
      <trkpt lat="44.33986" lon="1.28075">
        <ele>271</ele>
        <time>2008-01-22T00:00:00Z</time>
      </trkpt>
      <trkpt lat="44.33913" lon="1.28061">
        <ele>279</ele>
        <time>2008-01-22T00:00:00Z</time>
      </trkpt>
      <trkpt lat="44.33862" lon="1.28056">
        <ele>284</ele>
        <time>2008-01-22T00:00:00Z</time>
      </trkpt>
      <trkpt lat="44.33794" lon="1.28069">
        <ele>290</ele>
        <time>2008-01-22T00:00:00Z</time>
      </trkpt>
      <trkpt lat="44.33758" lon="1.2809">
        <ele>292</ele>
        <time>2008-01-22T00:00:00Z</time>
      </trkpt>
      <trkpt lat="44.33722" lon="1.28185">
        <ele>290</ele>
        <time>2008-01-22T00:00:00Z</time>
      </trkpt>
      <trkpt lat="44.33713" lon="1.28249">
        <ele>286</ele>
        <time>2008-01-22T00:00:00Z</time>
      </trkpt>
      <trkpt lat="44.33714" lon="1.28282">
        <ele>283</ele>
        <time>2008-01-22T00:00:00Z</time>
      </trkpt>
      <trkpt lat="44.33732" lon="1.28347">
        <ele>278</ele>
        <time>2008-01-22T00:00:00Z</time>
      </trkpt>
      <trkpt lat="44.33785" lon="1.28465">
        <ele>271</ele>
        <time>2008-01-22T00:00:00Z</time>
      </trkpt>
      <trkpt lat="44.33834" lon="1.28658">
        <ele>266</ele>
        <time>2008-01-22T00:00:00Z</time>
      </trkpt>
      <trkpt lat="44.33839" lon="1.28701">
        <ele>264</ele>
        <time>2008-01-22T00:00:00Z</time>
      </trkpt>
      <trkpt lat="44.33833" lon="1.28957">
        <ele>261</ele>
        <time>2008-01-22T00:00:00Z</time>
      </trkpt>
      <trkpt lat="44.33828" lon="1.29048">
        <ele>261</ele>
        <time>2008-01-22T00:00:00Z</time>
      </trkpt>
      <trkpt lat="44.33844" lon="1.29121">
        <ele>253</ele>
        <time>2008-01-22T00:00:00Z</time>
      </trkpt>
      <trkpt lat="44.33845" lon="1.29149">
        <ele>252</ele>
        <time>2008-01-22T00:00:00Z</time>
      </trkpt>
      <trkpt lat="44.33866" lon="1.29299">
        <ele>240</ele>
        <time>2008-01-22T00:00:00Z</time>
      </trkpt>
      <trkpt lat="44.33858" lon="1.29338">
        <ele>239</ele>
        <time>2008-01-22T00:00:00Z</time>
      </trkpt>
      <trkpt lat="44.33748" lon="1.2956">
        <ele>211</ele>
        <time>2008-01-22T00:00:00Z</time>
      </trkpt>
      <trkpt lat="44.33748" lon="1.29669">
        <ele>201</ele>
        <time>2008-01-22T00:00:00Z</time>
      </trkpt>
      <trkpt lat="44.33725" lon="1.29754">
        <ele>192</ele>
        <time>2008-01-22T00:00:00Z</time>
      </trkpt>
      <trkpt lat="44.33712" lon="1.29782">
        <ele>190</ele>
        <time>2008-01-22T00:00:00Z</time>
      </trkpt>
      <trkpt lat="44.33688" lon="1.29915">
        <ele>190</ele>
        <time>2008-01-22T00:00:00Z</time>
      </trkpt>
      <trkpt lat="44.33677" lon="1.29958">
        <ele>192</ele>
        <time>2008-01-22T00:00:00Z</time>
      </trkpt>
      <trkpt lat="44.33668" lon="1.30013">
        <ele>200</ele>
        <time>2008-01-22T00:00:00Z</time>
      </trkpt>
      <trkpt lat="44.33648" lon="1.30057">
        <ele>201</ele>
        <time>2008-01-22T00:00:00Z</time>
      </trkpt>
      <trkpt lat="44.33629" lon="1.30083">
        <ele>202</ele>
        <time>2008-01-22T00:00:00Z</time>
      </trkpt>
      <trkpt lat="44.33617" lon="1.30122">
        <ele>205</ele>
        <time>2008-01-22T00:00:00Z</time>
      </trkpt>
      <trkpt lat="44.33622" lon="1.30284">
        <ele>202</ele>
        <time>2008-01-22T00:00:00Z</time>
      </trkpt>
      <trkpt lat="44.33629" lon="1.30313">
        <ele>200</ele>
        <time>2008-01-22T00:00:00Z</time>
      </trkpt>
      <trkpt lat="44.33649" lon="1.30371">
        <ele>190</ele>
        <time>2008-01-22T00:00:00Z</time>
      </trkpt>
      <trkpt lat="44.33683" lon="1.30416">
        <ele>187</ele>
        <time>2008-01-22T00:00:00Z</time>
      </trkpt>
      <trkpt lat="44.3373" lon="1.30468">
        <ele>186</ele>
        <time>2008-01-22T00:00:00Z</time>
      </trkpt>
      <trkpt lat="44.33737" lon="1.30485">
        <ele>185</ele>
        <time>2008-01-22T00:00:00Z</time>
      </trkpt>
      <trkpt lat="44.33756" lon="1.30556">
        <ele>184</ele>
        <time>2008-01-22T00:00:00Z</time>
      </trkpt>
      <trkpt lat="44.33879" lon="1.30613">
        <ele>181</ele>
        <time>2008-01-22T00:00:00Z</time>
      </trkpt>
      <trkpt lat="44.33906" lon="1.30631">
        <ele>180</ele>
        <time>2008-01-22T00:00:00Z</time>
      </trkpt>
      <trkpt lat="44.33927" lon="1.30659">
        <ele>180</ele>
        <time>2008-01-22T00:00:00Z</time>
      </trkpt>
      <trkpt lat="44.33962" lon="1.30716">
        <ele>182</ele>
        <time>2008-01-22T00:00:00Z</time>
      </trkpt>
      <trkpt lat="44.33977" lon="1.3076">
        <ele>182</ele>
        <time>2008-01-22T00:00:00Z</time>
      </trkpt>
      <trkpt lat="44.33961" lon="1.3083">
        <ele>182</ele>
        <time>2008-01-22T00:00:00Z</time>
      </trkpt>
      <trkpt lat="44.33934" lon="1.30878">
        <ele>180</ele>
        <time>2008-01-22T00:00:00Z</time>
      </trkpt>
      <trkpt lat="44.33918" lon="1.30924">
        <ele>180</ele>
        <time>2008-01-22T00:00:00Z</time>
      </trkpt>
      <trkpt lat="44.33906" lon="1.30973">
        <ele>178</ele>
        <time>2008-01-22T00:00:00Z</time>
      </trkpt>
      <trkpt lat="44.3392" lon="1.30978">
        <ele>178</ele>
        <time>2008-01-22T00:00:00Z</time>
      </trkpt>
      <trkpt lat="44.33952" lon="1.30993">
        <ele>178</ele>
        <time>2008-01-22T00:00:00Z</time>
      </trkpt>
      <trkpt lat="44.34051" lon="1.30997">
        <ele>178</ele>
        <time>2008-01-22T00:00:00Z</time>
      </trkpt>
      <trkpt lat="44.34094" lon="1.30989">
        <ele>178</ele>
        <time>2008-01-22T00:00:00Z</time>
      </trkpt>
      <trkpt lat="44.3413" lon="1.30987">
        <ele>178</ele>
        <time>2008-01-22T00:00:00Z</time>
      </trkpt>
      <trkpt lat="44.34147" lon="1.3098">
        <ele>178</ele>
        <time>2008-01-22T00:00:00Z</time>
      </trkpt>
      <trkpt lat="44.34165" lon="1.30993">
        <ele>178</ele>
        <time>2008-01-22T00:00:00Z</time>
      </trkpt>
      <trkpt lat="44.34177" lon="1.31021">
        <ele>178</ele>
        <time>2008-01-22T00:00:00Z</time>
      </trkpt>
      <trkpt lat="44.34209" lon="1.3114">
        <ele>178</ele>
        <time>2008-01-22T00:00:00Z</time>
      </trkpt>
      <trkpt lat="44.34227" lon="1.31242">
        <ele>179</ele>
        <time>2008-01-22T00:00:00Z</time>
      </trkpt>
      <trkpt lat="44.34272" lon="1.31425">
        <ele>179</ele>
        <time>2008-01-22T00:00:00Z</time>
      </trkpt>
      <trkpt lat="44.34271" lon="1.31434">
        <ele>179</ele>
        <time>2008-01-22T00:00:00Z</time>
      </trkpt>
      <trkpt lat="44.34233" lon="1.3146">
        <ele>182</ele>
        <time>2008-01-22T00:00:00Z</time>
      </trkpt>
      <trkpt lat="44.34196" lon="1.31514">
        <ele>188</ele>
        <time>2008-01-22T00:00:00Z</time>
      </trkpt>
      <trkpt lat="44.34159" lon="1.31548">
        <ele>191</ele>
        <time>2008-01-22T00:00:00Z</time>
      </trkpt>
      <trkpt lat="44.3414" lon="1.3155">
        <ele>195</ele>
        <time>2008-01-22T00:00:00Z</time>
      </trkpt>
      <trkpt lat="44.3411" lon="1.31571">
        <ele>197</ele>
        <time>2008-01-22T00:00:00Z</time>
      </trkpt>
      <trkpt lat="44.34133" lon="1.31627">
        <ele>200</ele>
        <time>2008-01-22T00:00:00Z</time>
      </trkpt>
      <trkpt lat="44.34149" lon="1.31638">
        <ele>201</ele>
        <time>2008-01-22T00:00:00Z</time>
      </trkpt>
      <trkpt lat="44.34163" lon="1.31639">
        <ele>201</ele>
        <time>2008-01-22T00:00:00Z</time>
      </trkpt>
      <trkpt lat="44.34177" lon="1.31636">
        <ele>201</ele>
        <time>2008-01-22T00:00:00Z</time>
      </trkpt>
      <trkpt lat="44.34199" lon="1.31735">
        <ele>216</ele>
        <time>2008-01-22T00:00:00Z</time>
      </trkpt>
      <trkpt lat="44.34216" lon="1.31781">
        <ele>219</ele>
        <time>2008-01-22T00:00:00Z</time>
      </trkpt>
      <trkpt lat="44.34219" lon="1.31801">
        <ele>219</ele>
        <time>2008-01-22T00:00:00Z</time>
      </trkpt>
      <trkpt lat="44.34204" lon="1.31832">
        <ele>221</ele>
        <time>2008-01-22T00:00:00Z</time>
      </trkpt>
      <trkpt lat="44.34187" lon="1.31846">
        <ele>222</ele>
        <time>2008-01-22T00:00:00Z</time>
      </trkpt>
      <trkpt lat="44.3416" lon="1.31848">
        <ele>229</ele>
        <time>2008-01-22T00:00:00Z</time>
      </trkpt>
      <trkpt lat="44.34098" lon="1.31875">
        <ele>236</ele>
        <time>2008-01-22T00:00:00Z</time>
      </trkpt>
      <trkpt lat="44.34049" lon="1.31916">
        <ele>247</ele>
        <time>2008-01-22T00:00:00Z</time>
      </trkpt>
      <trkpt lat="44.34016" lon="1.31964">
        <ele>249</ele>
        <time>2008-01-22T00:00:00Z</time>
      </trkpt>
      <trkpt lat="44.33989" lon="1.32023">
        <ele>250</ele>
        <time>2008-01-22T00:00:00Z</time>
      </trkpt>
      <trkpt lat="44.33964" lon="1.32056">
        <ele>253</ele>
        <time>2008-01-22T00:00:00Z</time>
      </trkpt>
      <trkpt lat="44.33937" lon="1.32152">
        <ele>262</ele>
        <time>2008-01-22T00:00:00Z</time>
      </trkpt>
      <trkpt lat="44.33944" lon="1.32214">
        <ele>263</ele>
        <time>2008-01-22T00:00:00Z</time>
      </trkpt>
      <trkpt lat="44.33949" lon="1.32308">
        <ele>265</ele>
        <time>2008-01-22T00:00:00Z</time>
      </trkpt>
      <trkpt lat="44.33946" lon="1.32332">
        <ele>264</ele>
        <time>2008-01-22T00:00:00Z</time>
      </trkpt>
      <trkpt lat="44.33935" lon="1.32353">
        <ele>264</ele>
        <time>2008-01-22T00:00:00Z</time>
      </trkpt>
      <trkpt lat="44.33849" lon="1.322">
        <ele>258</ele>
        <time>2008-01-22T00:00:00Z</time>
      </trkpt>
      <trkpt lat="44.33799" lon="1.32076">
        <ele>260</ele>
        <time>2008-01-22T00:00:00Z</time>
      </trkpt>
      <trkpt lat="44.33778" lon="1.32034">
        <ele>261</ele>
        <time>2008-01-22T00:00:00Z</time>
      </trkpt>
      <trkpt lat="44.33693" lon="1.31904">
        <ele>265</ele>
        <time>2008-01-22T00:00:00Z</time>
      </trkpt>
      <trkpt lat="44.33649" lon="1.31843">
        <ele>265</ele>
        <time>2008-01-22T00:00:00Z</time>
      </trkpt>
      <trkpt lat="44.33625" lon="1.31804">
        <ele>265</ele>
        <time>2008-01-22T00:00:00Z</time>
      </trkpt>
      <trkpt lat="44.33602" lon="1.31791">
        <ele>265</ele>
        <time>2008-01-22T00:00:00Z</time>
      </trkpt>
      <trkpt lat="44.33568" lon="1.31712">
        <ele>262</ele>
        <time>2008-01-22T00:00:00Z</time>
      </trkpt>
      <trkpt lat="44.33531" lon="1.31669">
        <ele>266</ele>
        <time>2008-01-22T00:00:00Z</time>
      </trkpt>
      <trkpt lat="44.33444" lon="1.31556">
        <ele>271</ele>
        <time>2008-01-22T00:00:00Z</time>
      </trkpt>
      <trkpt lat="44.33366" lon="1.31447">
        <ele>264</ele>
        <time>2008-01-22T00:00:00Z</time>
      </trkpt>
      <trkpt lat="44.33328" lon="1.31372">
        <ele>254</ele>
        <time>2008-01-22T00:00:00Z</time>
      </trkpt>
      <trkpt lat="44.33314" lon="1.31318">
        <ele>253</ele>
        <time>2008-01-22T00:00:00Z</time>
      </trkpt>
      <trkpt lat="44.33295" lon="1.31281">
        <ele>252</ele>
        <time>2008-01-22T00:00:00Z</time>
      </trkpt>
      <trkpt lat="44.33257" lon="1.31236">
        <ele>250</ele>
        <time>2008-01-22T00:00:00Z</time>
      </trkpt>
      <trkpt lat="44.33221" lon="1.31225">
        <ele>247</ele>
        <time>2008-01-22T00:00:00Z</time>
      </trkpt>
      <trkpt lat="44.33146" lon="1.31235">
        <ele>240</ele>
        <time>2008-01-22T00:00:00Z</time>
      </trkpt>
      <trkpt lat="44.33083" lon="1.31253">
        <ele>233</ele>
        <time>2008-01-22T00:00:00Z</time>
      </trkpt>
      <trkpt lat="44.33058" lon="1.31245">
        <ele>229</ele>
        <time>2008-01-22T00:00:00Z</time>
      </trkpt>
      <trkpt lat="44.33048" lon="1.31228">
        <ele>228</ele>
        <time>2008-01-22T00:00:00Z</time>
      </trkpt>
      <trkpt lat="44.33044" lon="1.312">
        <ele>227</ele>
        <time>2008-01-22T00:00:00Z</time>
      </trkpt>
      <trkpt lat="44.33062" lon="1.31142">
        <ele>226</ele>
        <time>2008-01-22T00:00:00Z</time>
      </trkpt>
      <trkpt lat="44.33076" lon="1.31121">
        <ele>225</ele>
        <time>2008-01-22T00:00:00Z</time>
      </trkpt>
      <trkpt lat="44.33109" lon="1.31096">
        <ele>224</ele>
        <time>2008-01-22T00:00:00Z</time>
      </trkpt>
      <trkpt lat="44.33177" lon="1.31066">
        <ele>222</ele>
        <time>2008-01-22T00:00:00Z</time>
      </trkpt>
      <trkpt lat="44.33183" lon="1.31053">
        <ele>219</ele>
        <time>2008-01-22T00:00:00Z</time>
      </trkpt>
      <trkpt lat="44.33185" lon="1.31028">
        <ele>216</ele>
        <time>2008-01-22T00:00:00Z</time>
      </trkpt>
      <trkpt lat="44.33255" lon="1.31017">
        <ele>212</ele>
        <time>2008-01-22T00:00:00Z</time>
      </trkpt>
      <trkpt lat="44.33303" lon="1.31004">
        <ele>212</ele>
        <time>2008-01-22T00:00:00Z</time>
      </trkpt>
      <trkpt lat="44.33423" lon="1.31012">
        <ele>204</ele>
        <time>2008-01-22T00:00:00Z</time>
      </trkpt>
      <trkpt lat="44.33457" lon="1.31002">
        <ele>200</ele>
        <time>2008-01-22T00:00:00Z</time>
      </trkpt>
      <trkpt lat="44.33513" lon="1.30988">
        <ele>192</ele>
        <time>2008-01-22T00:00:00Z</time>
      </trkpt>
      <trkpt lat="44.3361" lon="1.31017">
        <ele>189</ele>
        <time>2008-01-22T00:00:00Z</time>
      </trkpt>
      <trkpt lat="44.33654" lon="1.31018">
        <ele>185</ele>
        <time>2008-01-22T00:00:00Z</time>
      </trkpt>
      <trkpt lat="44.33734" lon="1.31009">
        <ele>180</ele>
        <time>2008-01-22T00:00:00Z</time>
      </trkpt>
      <trkpt lat="44.33816" lon="1.31011">
        <ele>179</ele>
        <time>2008-01-22T00:00:00Z</time>
      </trkpt>
      <trkpt lat="44.33843" lon="1.31002">
        <ele>179</ele>
        <time>2008-01-22T00:00:00Z</time>
      </trkpt>
      <trkpt lat="44.33905" lon="1.30972">
        <ele>179</ele>
        <time>2008-01-22T00:00:00Z</time>
      </trkpt>
      <trkpt lat="44.33918" lon="1.30924">
        <ele>179</ele>
        <time>2008-01-22T00:00:00Z</time>
      </trkpt>
      <trkpt lat="44.33933" lon="1.30879">
        <ele>179</ele>
        <time>2008-01-22T00:00:00Z</time>
      </trkpt>
      <trkpt lat="44.33962" lon="1.30831">
        <ele>182</ele>
        <time>2008-01-22T00:00:00Z</time>
      </trkpt>
      <trkpt lat="44.33977" lon="1.30761">
        <ele>184</ele>
        <time>2008-01-22T00:00:00Z</time>
      </trkpt>
    </trkseg>
  </trk>
</gpx>